Location: Vihti�l�
(61.3833°N, 23.0667°E)
Time: 06:35:14
(UTC+00:00)

ISS - Visible Passes

Search period start: 04 March 2021 00:00
Search period end: 14 March 2021 00:00
Orbit: 417 x 422 km, 51.6° (Epoch: 03 March)

Date Brightness Start Highest point End Pass type
(mag) Time Alt. Az. Time Alt. Az. Time Alt. Az.
04 Mar -1.7 03:09:46 16° S 03:10:06 16° S 03:12:16 10° SE visible
05 Mar -1.2 02:24:06 13° SSE 02:24:06 13° SSE 02:24:58 10° SE visible
05 Mar -1.5 03:57:03 10° SW 03:58:44 14° SSW 04:00:29 10° SSE visible
06 Mar -1.7 03:11:24 15° SSW 03:11:29 15° S 03:13:29 10° SSE visible
07 Mar -1.2 02:25:47 12° SSE 02:25:47 12° SSE 02:26:21 10° SE visible
08 Mar -1.4 03:13:11 12° SSW 03:13:11 12° SSW 03:14:06 10° S visible
